Regional Weather Roundup
Issued by NWS New Orleans/Baton Rouge, LA

Home | Current Version | Previous Version | Text Only | Print | Product List | Glossary On
Versions: 1 2 3 4 5 6 7 8 9 10 11 12 13 14 15 16 17 18 19 20 21 22 23 24 25 26 27 28
000
ASUS44 KLIX 250313
RWRLIX
NEW ORLEANS REGIONAL WEATHER ROUNDUP
NATIONAL WEATHER SERVICE NEW ORLEANS LA
1000 PM CDT MON APR 24 2017

NOTE: "FAIR" INDICATES FEW OR NO CLOUDS BELOW 12,000 FEET WITH NO
      SIGNIFICANT WEATHER AND/OR OBSTRUCTIONS TO VISIBILITY.
      SKY/WX - SKY CONDITION AND SIGNIFICANT WEATHER.
      TMP - AIR TEMPERATURE.     DP    - DEWPOINT TEMPERATURE.
      RH  - RELATIVE HUMIDITY.   PRES  - PRESSURE.
      HI  - HEAT INDEX.          WCI   - WIND CHILL INDEX.

*  THESE STATIONS ARE NOT NWS OR FAA STATIONS AND ARE NOT UNDER
   NWS QUALITY CONTROL.

LAZ038-040-048-061>063-065>067-069-250400-
SOUTHEAST LOUISIANA

CITY           SKY/WX    TMP DP  RH WIND       PRES   REMARKS
N.O. INTL ARPT CLEAR     62  55  77 CALM      29.81R
N.O. LAKEFRONT CLEAR     72  55  55 SW7       29.80S
N.O. DOWNTOWN*   N/A     73  51  46 VRB3        N/A
RESERVE*       NOT AVBL
SLIDELL        CLEAR     60  55  83 CALM      29.79S
BATON ROUGE    CLEAR     62  54  74 CALM      29.80S
BOOTHVILLE     CLEAR     67  58  72 W6        29.81S
BELLE CHASSE   PTCLDY    68  55  63 SW3       29.80S
BOGALUSA*      NOT AVBL
GALLIANO*      CLEAR     59  53  79 CALM      29.82R
NEW ROADS*       N/A     60  51  73 CALM      29.81R
GONZALES*        N/A     59  54  82 CALM      29.80S
HAMMOND*       CLEAR     59  54  82 CALM      29.80R
HOUMA*         CLEAR     63  56  76 W3        29.82S
PORT FOURCHON* CLEAR     72  55  56 W8        29.83R

$$

MSZ070-080>082-250400-
SOUTHERN MISSISSIPPI

CITY           SKY/WX    TMP DP  RH WIND       PRES   REMARKS
MCCOMB         CLEAR     59  51  75 CALM      29.81R
GULFPORT       CLEAR     68  56  65 NE3       29.79S
BILOXI         CLEAR     68  56  67 E8        29.79S
PASCAGOULA     CLEAR     59  55  87 CALM      29.80S

$$

COASTAL OBSERVATIONS
LAKE AND NEARSHORE STATIONS

STATION/POSITION TIME  TEMP    WIND        PRES    WAVE
                       AIR SEA DIR/SP/G            HT/PER
                 (UTC) (F)     (DEG/KT/KT) (MB)    (FT/S)
PASCAGOULA       0248   68      60/  9/ 10 1008.8
WAVELAND YACHT   0242   72 74   80/  6/  7 1008.5
GRAND ISLE       0248   70 74  240/  5/  6 1009.4
SOUTHWEST PASS   0248          230/  9/  9   N/A
NEW CANAL        0248   71 75  220/  4/  5 1009.0
SHELL BEACH      0242   69 74  230/  6/  7 1009.0

OFFSHORE STATIONS

STATION/POSITION TIME  TEMP    WIND        PRES    WAVE
                       AIR SEA DIR/SP/G            HT/PER
                 (UTC) (F)     (DEG/KT/KT) (MB)    (FT/S)
64 S DAUPHIN ISL 0250   71 74  250/ 10/ 12 1009.5    2/ 4

$$





USA.gov is the U.S. government's official web portal to all federal, state and local government web resources and services.